Find Starlink 11515

NORAD ID: 62556 Int'l Des: 2025-006 Owner: SPXS Country: US Constellation: starlink operational
LEOCIRCULAR

現在のビュー

3D地球を読み込み中...

About Starlink 11515

Starlink 11515 (NORAD 62556) is a starlink constellation satellite (v2 mini d2c) launched Jan 10, 2025 by SPXS of US. It operates in LEO, CIRCULAR orbit with a mass of 960.00 kg.

Starlink 11515について

説明を読み込み中...

次回通過

Passes for default location (London). Set your location on the main map for personalized predictions.

高度履歴

Loading altitude history...

軌道要素

1 62556U 25006C 26169.56262987 .00224096 00000-0 16999-2 0 9995
2 62556 43.0000 252.1785 0001371 289.5671 70.5049 15.70887129 82466
Epoch: Jun 18, 2026 • Age: 6 hours

現在のステータス

高度 356.5 km
速度 7.70 km/s
衛星直下点 27.27°N, 80.11°E
打ち上げ日 Jan 10, 2025
運用期間 1.4 years
タイプ internet

技術仕様

分類 Payload
質量 960.00 kg
乾燥質量 910.00 kg
総質量 960.00 kg
長さ 0.30 m
直径 4.10 m
スパン 29.00 m
形状 Box + pan
製造者 SPXS
バスタイプ Starlink V2MD
フェーズステータス In Orbit
所有者/国 SPXS/US

Most Searched